When you browse on this site, cookies collect data to enhance your experience and personalize the content and advertising you see.
Visit our Privacy Policy to learn more. By continuing to use the site, you agree to this use of cookies and data.
  • In Hungary
  • List of Countries
  • For 7 days
  • Water Temperature
  • Satellite Maps
  • Weather Map
  • News
  • Weather Widgets
  • user-avatar
    Login

    Hourly Weather Harare

    Today, 22 April, Monday

    Time Temperature Precipitation Wind Pressure Humidity
    00:00 +15°C° 0 mm 1 mps 638 mmHg 65%
    01:00 +15°C° 0 mm 1 mps 638 mmHg 68%
    02:00 +15°C° 0 mm 1 mps 638 mmHg 71%
    03:00 +14°C° 0 mm 1 mps 638 mmHg 74%
    04:00 +14°C° 0 mm 1 mps 638 mmHg 77%
    05:00 +14°C° 0 mm 1 mps 638 mmHg 80%
    06:00 +15°C° 0 mm 1 mps 639 mmHg 76%
    07:00 +16°C° 0 mm 2 mps 639 mmHg 73%
    08:00 +18°C° 0 mm 2 mps 640 mmHg 70%
    09:00 +20°C° 0 mm 2 mps 640 mmHg 61%
    10:00 +23°C° 0 mm 2 mps 641 mmHg 52%
    11:00 +25°C° 0 mm 2 mps 641 mmHg 43%
    12:00 +26°C° 0 mm 2 mps 641 mmHg 40%
    13:00 +26°C° 0 mm 2 mps 641 mmHg 38%
    14:00 +27°C° 0 mm 2 mps 640 mmHg 35%
    15:00 +26°C° 0 mm 2 mps 640 mmHg 40%
    16:00 +25°C° 0 mm 2 mps 639 mmHg 44%
    17:00 +24°C° 0 mm 2 mps 639 mmHg 49%
    18:00 +21°C° 0 mm 2 mps 639 mmHg 55%
    19:00 +20°C° 0 mm 2 mps 639 mmHg 61%
    20:00 +18°C° 0 mm 3 mps 639 mmHg 67%
    21:00 +17°C° 0 mm 2 mps 639 mmHg 71%
    22:00 +16°C° 0 mm 2 mps 639 mmHg 75%
    23:00 +16°C° 0 mm 2 mps 639 mmHg 79%

    Tomorrow, 23 April, Tuesday

    Time Temperature Precipitation Wind Pressure Humidity
    00:00 +15°C° 0 mm 2 mps 639 mmHg 81%
    01:00 +15°C° 0 mm 2 mps 639 mmHg 84%
    02:00 +14°C° 0 mm 2 mps 638 mmHg 86%
    03:00 +14°C° 0 mm 2 mps 638 mmHg 87%
    04:00 +14°C° 0 mm 1 mps 638 mmHg 87%
    05:00 +13°C° 0 mm 1 mps 638 mmHg 88%
    06:00 +15°C° 0 mm 2 mps 639 mmHg 80%
    07:00 +16°C° 0 mm 2 mps 640 mmHg 72%
    08:00 +17°C° 0 mm 2 mps 641 mmHg 64%
    09:00 +20°C° 0 mm 2 mps 641 mmHg 57%
    10:00 +23°C° 0 mm 2 mps 642 mmHg 50%
    11:00 +25°C° 0 mm 2 mps 642 mmHg 43%
    12:00 +26°C° 0 mm 2 mps 642 mmHg 41%
    13:00 +27°C° 0 mm 1 mps 641 mmHg 38%
    14:00 +28°C° 0 mm 1 mps 641 mmHg 36%
    15:00 +27°C° 0 mm 2 mps 640 mmHg 40%
    16:00 +26°C° 0 mm 2 mps 640 mmHg 45%
    17:00 +25°C° 0 mm 2 mps 639 mmHg 49%
    18:00 +23°C° 0 mm 2 mps 639 mmHg 56%
    19:00 +20°C° 0 mm 2 mps 639 mmHg 62%
    20:00 +18°C° 0 mm 2 mps 639 mmHg 68%
    21:00 +18°C° 0 mm 2 mps 640 mmHg 73%
    22:00 +17°C° 0 mm 2 mps 640 mmHg 79%
    23:00 +16°C° 0 mm 2 mps 640 mmHg 84%

    Day after tomorrow, 24 April, Wednesday

    Time Temperature Precipitation Wind Pressure Humidity
    00:00 +16°C° 0 mm 2 mps 640 mmHg 86%
    01:00 +16°C° 0 mm 1 mps 639 mmHg 88%
    02:00 +15°C° 0 mm 1 mps 639 mmHg 91%
    03:00 +15°C° 0 mm 1 mps 639 mmHg 92%
    04:00 +15°C° 0 mm 1 mps 639 mmHg 93%
    05:00 +14°C° 0 mm 1 mps 639 mmHg 94%
    06:00 +16°C° 0 mm 1 mps 640 mmHg 89%
    07:00 +17°C° 0 mm 2 mps 640 mmHg 83%
    08:00 +18°C° 0 mm 2 mps 641 mmHg 78%
    09:00 +20°C° 0 mm 2 mps 642 mmHg 68%
    10:00 +24°C° 0 mm 2 mps 642 mmHg 59%
    11:00 +26°C° 0 mm 2 mps 643 mmHg 49%
    12:00 +27°C° 0 mm 2 mps 642 mmHg 45%
    13:00 +28°C° 0 mm 2 mps 642 mmHg 41%
    14:00 +28°C° 0 mm 2 mps 641 mmHg 37%
    15:00 +27°C° 0 mm 2 mps 641 mmHg 40%
    16:00 +26°C° 0 mm 2 mps 640 mmHg 44%
    17:00 +25°C° 0 mm 2 mps 640 mmHg 47%
    18:00 +24°C° 0 mm 2 mps 640 mmHg 55%
    19:00 +21°C° 0 mm 2 mps 640 mmHg 63%
    20:00 +19°C° 0 mm 3 mps 640 mmHg 72%
    21:00 +18°C° 0 mm 2 mps 640 mmHg 77%
    22:00 +18°C° 0 mm 2 mps 640 mmHg 82%
    23:00 +18°C° 0 mm 1 mps 640 mmHg 87%

    25 April, Thursday

    Time Temperature Precipitation Wind Pressure Humidity
    00:00 +16°C° 0 mm 1 mps 640 mmHg 88%
    01:00 +16°C° 0 mm 1 mps 639 mmHg 90%
    02:00 +16°C° 0 mm 1 mps 639 mmHg 91%
    03:00 +14°C° 0 mm 0 mps 639 mmHg 91%
    04:00 +14°C° 0 mm 0 mps 639 mmHg 92%
    05:00 +14°C° 0 mm 0 mps 639 mmHg 93%
    06:00 +15°C° 0 mm 0 mps 640 mmHg 88%
    07:00 +17°C° 0 mm 0 mps 640 mmHg 82%
    08:00 +18°C° 0 mm 0 mps 641 mmHg 77%
    09:00 +22°C° 0 mm 1 mps 642 mmHg 68%
    10:00 +24°C° 0 mm 1 mps 642 mmHg 59%
    11:00 +26°C° 0 mm 1 mps 642 mmHg 51%
    12:00 +27°C° 0 mm 1 mps 642 mmHg 46%
    13:00 +28°C° 0 mm 1 mps 641 mmHg 42%
    14:00 +29°C° 0 mm 1 mps 640 mmHg 37%
    15:00 +28°C° 0 mm 1 mps 640 mmHg 40%
    16:00 +27°C° 0 mm 1 mps 640 mmHg 43%
    17:00 +26°C° 0 mm 1 mps 639 mmHg 47%
    18:00 +25°C° 0 mm 1 mps 639 mmHg 51%
    19:00 +24°C° 0 mm 1 mps 640 mmHg 56%
    20:00 +21°C° 0 mm 2 mps 640 mmHg 60%
    21:00 +20°C° 0 mm 2 mps 639 mmHg 67%
    22:00 +19°C° 0 mm 2 mps 639 mmHg 73%
    23:00 +18°C° 0 mm 2 mps 639 mmHg 79%

    26 April, Friday

    Time Temperature Precipitation Wind Pressure Humidity
    00:00 +19°C° 0 mm 1 mps 639 mmHg 81%
    01:00 +18°C° 0 mm 1 mps 638 mmHg 84%
    02:00 +18°C° 0 mm 1 mps 638 mmHg 86%
    03:00 +18°C° 0 mm 1 mps 638 mmHg 87%
    04:00 +15°C° 0 mm 0 mps 638 mmHg 89%
    05:00 +15°C° 0 mm 0 mps 638 mmHg 90%
    06:00 +16°C° 0 mm 0 mps 639 mmHg 85%
    07:00 +18°C° 0 mm 0 mps 640 mmHg 79%
    08:00 +19°C° 0 mm 0 mps 640 mmHg 73%
    09:00 +23°C° 0 mm 1 mps 641 mmHg 63%
    10:00 +25°C° 0 mm 1 mps 641 mmHg 54%
    11:00 +27°C° 0 mm 2 mps 641 mmHg 44%
    12:00 +28°C° 0 mm 2 mps 641 mmHg 40%
    13:00 +29°C° 0 mm 2 mps 640 mmHg 35%
    14:00 +30°C° 0 mm 2 mps 640 mmHg 31%
    15:00 +29°C° 0 mm 2 mps 639 mmHg 34%
    16:00 +28°C° 0 mm 2 mps 639 mmHg 38%
    17:00 +26°C° 0 mm 2 mps 639 mmHg 41%
    18:00 +25°C° 0 mm 2 mps 639 mmHg 44%
    19:00 +23°C° 0 mm 2 mps 639 mmHg 48%
    20:00 +21°C° 0 mm 3 mps 639 mmHg 51%
    21:00 +20°C° 0 mm 2 mps 639 mmHg 55%
    22:00 +19°C° 0 mm 2 mps 639 mmHg 58%
    23:00 +19°C° 0 mm 2 mps 639 mmHg 62%

    27 April, Saturday

    Time Temperature Precipitation Wind Pressure Humidity
    00:00 +19°C° 0 mm 1 mps 639 mmHg 66%
    01:00 +19°C° 0 mm 1 mps 638 mmHg 69%
    02:00 +18°C° 0 mm 1 mps 638 mmHg 73%
    03:00 +18°C° 0 mm 1 mps 638 mmHg 75%
    04:00 +18°C° 0 mm 1 mps 638 mmHg 78%
    05:00 +16°C° 0 mm 1 mps 638 mmHg 80%
    06:00 +19°C° 0 mm 1 mps 639 mmHg 73%
    07:00 +20°C° 0 mm 1 mps 640 mmHg 65%
    08:00 +21°C° 0 mm 2 mps 641 mmHg 57%
    09:00 +24°C° 0 mm 2 mps 641 mmHg 48%
    10:00 +26°C° 0 mm 2 mps 641 mmHg 39%
    11:00 +28°C° 0 mm 3 mps 642 mmHg 30%
    12:00 +28°C° 0 mm 3 mps 641 mmHg 29%
    13:00 +29°C° 0 mm 3 mps 641 mmHg 28%
    14:00 +29°C° 0 mm 3 mps 640 mmHg 27%
    15:00 +28°C° 0 mm 3 mps 640 mmHg 32%
    16:00 +27°C° 0 mm 2 mps 640 mmHg 37%
    17:00 +26°C° 0 mm 2 mps 640 mmHg 42%
    18:00 +24°C° 0 mm 2 mps 640 mmHg 46%
    19:00 +23°C° 0 mm 2 mps 640 mmHg 50%
    20:00 +21°C° 0 mm 2 mps 640 mmHg 55%
    21:00 +20°C° 0 mm 2 mps 640 mmHg 59%
    22:00 +20°C° 0 mm 1 mps 640 mmHg 63%
    23:00 +19°C° 0 mm 1 mps 640 mmHg 68%
    Show more